Time,TemperatureF,DewpointF,PressureIn,WindDirection,WindDirectionDegrees,WindSpeedMPH,WindSpeedGustMPH,Humidity,HourlyPrecipIn,Conditions,Clouds,dailyrainin,SoftwareType,DateUTC
2013-04-10 00:02:00,21.0,18.0,30.18,North,10,10.0,16.0,88,0.00,,,0.50,,2013-04-10 05:02:00,
2013-04-10 00:13:00,21.0,18.0,30.18,North,10,10.0,16.0,88,0.00,,,0.50,,2013-04-10 05:13:00,
2013-04-10 00:23:00,21.0,18.0,30.16,North,355,10.0,16.0,88,0.00,,,0.50,,2013-04-10 05:23:00,
2013-04-10 00:33:00,21.0,18.0,30.19,NNW,344,9.0,15.0,89,0.00,,,0.50,,2013-04-10 05:33:00,
2013-04-10 00:42:00,21.0,18.0,30.19,NNW,344,9.0,15.0,89,0.00,,,0.50,,2013-04-10 05:42:00,
2013-04-10 00:53:00,21.0,18.0,30.19,NNE,19,10.0,15.0,88,0.00,,,0.50,,2013-04-10 05:53:00,
2013-04-10 01:03:00,21.0,18.0,30.18,North,360,7.0,17.0,88,0.00,,,0.46,,2013-04-10 06:03:00,
2013-04-10 01:12:00,21.0,17.0,30.20,NNW,342,9.0,17.0,86,0.00,,,0.46,,2013-04-10 06:12:00,
2013-04-10 01:22:00,21.0,17.0,30.20,NNW,342,9.0,17.0,86,0.00,,,0.46,,2013-04-10 06:22:00,
2013-04-10 01:32:00,22.0,18.0,30.20,NE,46,9.0,15.0,85,0.00,,,0.46,,2013-04-10 06:32:00,
2013-04-10 01:42:00,22.0,18.0,30.20,NE,46,9.0,15.0,85,0.00,,,0.46,,2013-04-10 06:42:00,
2013-04-10 01:52:00,22.0,18.0,30.20,North,350,7.0,18.0,85,0.00,,,0.46,,2013-04-10 06:52:00,
2013-04-10 02:02:00,21.0,17.0,30.19,NNW,342,8.0,17.0,86,0.00,,,0.42,,2013-04-10 07:02:00,
2013-04-10 02:12:00,21.0,17.0,30.19,NNW,342,8.0,17.0,86,0.00,,,0.42,,2013-04-10 07:12:00,
2013-04-10 02:22:00,21.0,18.0,30.18,NNW,346,7.0,15.0,87,0.00,,,0.42,,2013-04-10 07:22:00,
2013-04-10 02:32:00,21.0,18.0,30.19,North,350,9.0,14.0,88,0.00,,,0.42,,2013-04-10 07:32:00,
2013-04-10 02:42:00,21.0,18.0,30.19,North,350,9.0,14.0,88,0.00,,,0.42,,2013-04-10 07:42:00,
2013-04-10 02:52:00,21.0,18.0,30.14,North,360,11.0,16.0,87,0.00,,,0.42,,2013-04-10 07:52:00,
2013-04-10 03:02:00,21.0,18.0,30.17,North,355,7.0,11.0,87,0.00,,,0.38,,2013-04-10 08:02:00,
2013-04-10 03:12:00,21.0,18.0,30.17,North,355,7.0,11.0,87,0.00,,,0.38,,2013-04-10 08:12:00,
2013-04-10 03:22:00,21.0,17.0,30.17,NNE,29,9.0,15.0,86,0.00,,,0.38,,2013-04-10 08:22:00,
2013-04-10 03:32:00,21.0,17.0,30.16,NNE,15,8.0,16.0,86,0.00,,,0.38,,2013-04-10 08:32:00,
2013-04-10 03:42:00,21.0,17.0,30.16,NNE,15,8.0,16.0,86,0.00,,,0.38,,2013-04-10 08:42:00,
2013-04-10 03:52:00,21.0,17.0,30.12,North,355,10.0,17.0,86,0.00,,,0.38,,2013-04-10 08:52:00,
2013-04-10 04:02:00,22.0,18.0,30.19,North,10,7.0,13.0,86,0.00,,,0.35,,2013-04-10 09:02:00,
2013-04-10 04:12:00,22.0,18.0,30.20,North,355,9.0,17.0,85,0.00,,,0.35,,2013-04-10 09:12:00,
2013-04-10 04:22:00,22.0,18.0,30.20,North,355,9.0,17.0,85,0.00,,,0.35,,2013-04-10 09:22:00,
2013-04-10 04:32:00,22.0,18.0,30.18,NNE,17,7.0,13.0,86,0.00,,,0.35,,2013-04-10 09:32:00,
2013-04-10 04:43:00,22.0,18.0,30.18,NNE,17,7.0,13.0,86,0.00,,,0.35,,2013-04-10 09:43:00,
2013-04-10 04:53:00,22.0,18.0,30.17,North,355,8.0,14.0,85,0.00,,,0.35,,2013-04-10 09:53:00,
2013-04-10 05:03:00,22.0,18.0,30.17,NW,325,8.0,17.0,84,0.00,,,0.33,,2013-04-10 10:03:00,
2013-04-10 05:13:00,22.0,18.0,30.14,North,360,7.0,15.0,84,0.00,,,0.33,,2013-04-10 10:13:00,
2013-04-10 05:23:00,22.0,18.0,30.14,North,360,7.0,15.0,84,0.00,,,0.33,,2013-04-10 10:23:00,
2013-04-10 05:33:00,22.0,18.0,30.14,NNE,26,8.0,15.0,84,0.00,,,0.33,,2013-04-10 10:33:00,
2013-04-10 05:42:00,22.0,18.0,30.14,NNE,26,8.0,15.0,84,0.00,,,0.33,,2013-04-10 10:42:00,
2013-04-10 05:52:00,21.0,17.0,30.12,North,10,7.0,17.0,84,0.00,,,0.33,,2013-04-10 10:52:00,
2013-04-10 06:02:00,21.0,17.0,30.13,North,360,8.0,16.0,85,0.00,,,0.31,,2013-04-10 11:02:00,
2013-04-10 06:12:00,21.0,17.0,30.13,North,360,8.0,16.0,85,0.00,,,0.31,,2013-04-10 11:12:00,
2013-04-10 06:22:00,21.0,17.0,30.16,NNE,21,7.0,15.0,84,0.00,,,0.31,,2013-04-10 11:22:00,
2013-04-10 06:32:00,21.0,17.0,30.17,North,10,7.0,16.0,84,0.00,,,0.31,,2013-04-10 11:32:00,
2013-04-10 06:42:00,21.0,17.0,30.17,North,10,7.0,16.0,84,0.00,,,0.31,,2013-04-10 11:42:00,
2013-04-10 06:53:00,22.0,18.0,30.15,NNE,13,7.0,12.0,83,0.00,,,0.31,,2013-04-10 11:53:00,
2013-04-10 07:03:00,21.0,17.0,30.17,North,5,6.0,14.0,84,0.00,,,0.28,,2013-04-10 12:03:00,
2013-04-10 07:12:00,21.0,17.0,30.17,North,5,6.0,14.0,84,0.00,,,0.28,,2013-04-10 12:12:00,
2013-04-10 07:22:00,21.0,17.0,30.20,NNW,346,8.0,16.0,83,0.00,,,0.28,,2013-04-10 12:22:00,
2013-04-10 07:33:00,21.0,17.0,30.17,NNE,18,5.0,14.0,85,0.00,,,0.28,,2013-04-10 12:33:00,
2013-04-10 07:42:00,21.0,17.0,30.17,NNE,18,5.0,14.0,85,0.00,,,0.28,,2013-04-10 12:42:00,
2013-04-10 07:52:00,21.0,17.0,30.16,ENE,59,8.0,13.0,85,0.00,,,0.28,,2013-04-10 12:52:00,
2013-04-10 08:02:00,21.0,17.0,30.15,North,360,8.0,15.0,85,0.00,,,0.00,,2013-04-10 13:02:00,
2013-04-10 08:12:00,21.0,17.0,30.15,North,360,8.0,15.0,85,0.00,,,0.00,,2013-04-10 13:12:00,
2013-04-10 08:23:00,21.0,17.0,30.16,North,5,8.0,17.0,85,0.00,,,0.00,,2013-04-10 13:23:00,
2013-04-10 08:32:00,21.0,17.0,30.17,North,10,10.0,15.0,85,0.00,,,0.00,,2013-04-10 13:32:00,
2013-04-10 08:43:00,21.0,17.0,30.17,North,10,10.0,15.0,85,0.00,,,0.00,,2013-04-10 13:43:00,
2013-04-10 08:53:00,21.0,17.0,30.16,North,355,12.0,22.0,85,0.00,,,0.00,,2013-04-10 13:53:00,
2013-04-10 09:02:00,22.0,18.0,30.16,NNE,17,9.0,17.0,86,0.00,,,0.00,,2013-04-10 14:02:00,
2013-04-10 09:12:00,22.0,18.0,30.16,NNE,17,9.0,17.0,86,0.00,,,0.00,,2013-04-10 14:12:00,
2013-04-10 09:22:00,22.0,18.0,30.17,NNE,16,7.0,15.0,86,0.00,,,0.00,,2013-04-10 14:22:00,
2013-04-10 09:32:00,22.0,18.0,30.17,North,5,10.0,17.0,86,0.00,,,0.00,,2013-04-10 14:32:00,
2013-04-10 09:42:00,22.0,18.0,30.17,North,5,10.0,17.0,86,0.00,,,0.00,,2013-04-10 14:42:00,
2013-04-10 09:52:00,22.0,18.0,30.18,NE,34,11.0,19.0,85,0.00,,,0.00,,2013-04-10 14:52:00,
2013-04-10 10:02:00,22.0,18.0,30.17,NE,42,9.0,19.0,85,0.00,,,0.00,,2013-04-10 15:02:00,
2013-04-10 10:12:00,22.0,18.0,30.17,NE,42,9.0,19.0,85,0.00,,,0.00,,2013-04-10 15:12:00,
2013-04-10 10:22:00,23.0,19.0,30.16,NNW,345,10.0,18.0,85,0.00,,,0.00,,2013-04-10 15:22:00,
2013-04-10 10:32:00,23.0,19.0,30.16,North,9,8.0,17.0,85,0.00,,,0.00,,2013-04-10 15:32:00,
2013-04-10 10:42:00,23.0,19.0,30.16,North,9,8.0,17.0,85,0.00,,,0.00,,2013-04-10 15:42:00,
2013-04-10 10:52:00,23.0,19.0,30.17,North,355,10.0,18.0,84,0.00,,,0.00,,2013-04-10 15:52:00,
2013-04-10 11:03:00,24.0,20.0,30.18,NNE,14,5.0,16.0,86,0.00,,,0.00,,2013-04-10 16:03:00,
2013-04-10 11:13:00,24.0,20.0,30.18,NNE,14,5.0,16.0,86,0.00,,,0.00,,2013-04-10 16:13:00,
2013-04-10 11:23:00,24.0,20.0,30.18,North,360,9.0,19.0,84,0.00,,,0.00,,2013-04-10 16:23:00,
2013-04-10 11:33:00,24.0,20.0,30.18,NNW,340,9.0,17.0,83,0.00,,,0.00,,2013-04-10 16:33:00,
2013-04-10 11:43:00,24.0,20.0,30.18,NNW,340,9.0,17.0,83,0.00,,,0.00,,2013-04-10 16:43:00,
2013-04-10 11:53:00,24.0,20.0,30.18,NNE,22,12.0,21.0,83,0.00,,,0.00,,2013-04-10 16:53:00,
2013-04-10 12:02:00,24.0,20.0,30.16,NNE,13,10.0,17.0,83,0.00,,,0.00,,2013-04-10 17:02:00,
2013-04-10 12:12:00,24.0,20.0,30.16,North,360,10.0,18.0,83,0.00,,,0.00,,2013-04-10 17:12:00,
2013-04-10 12:22:00,24.0,20.0,30.16,North,360,10.0,18.0,83,0.00,,,0.00,,2013-04-10 17:22:00,
2013-04-10 12:33:00,25.0,21.0,30.16,North,9,10.0,18.0,84,0.00,,,0.00,,2013-04-10 17:33:00,
2013-04-10 12:43:00,25.0,21.0,30.16,North,9,10.0,18.0,84,0.00,,,0.00,,2013-04-10 17:43:00,
2013-04-10 12:52:00,25.0,21.0,30.16,NNE,14,8.0,17.0,84,0.00,,,0.00,,2013-04-10 17:52:00,
2013-04-10 13:12:00,25.0,21.0,30.15,NNE,13,10.0,17.0,83,0.00,,,0.00,,2013-04-10 18:12:00,
2013-04-10 13:23:00,25.0,21.0,30.15,North,350,11.0,18.0,83,0.00,,,0.00,,2013-04-10 18:23:00,
2013-04-10 13:33:00,25.0,21.0,30.14,NNE,17,10.0,20.0,84,0.00,,,0.00,,2013-04-10 18:33:00,
2013-04-10 13:42:00,25.0,21.0,30.14,NNE,17,10.0,20.0,84,0.00,,,0.00,,2013-04-10 18:42:00,
2013-04-10 13:52:00,25.0,21.0,30.15,NE,49,12.0,17.0,84,0.00,,,0.00,,2013-04-10 18:52:00,
2013-04-10 14:03:00,25.0,21.0,30.14,North,11,10.0,19.0,84,0.00,,,0.00,,2013-04-10 19:03:00,
2013-04-10 14:12:00,25.0,21.0,30.14,North,11,10.0,19.0,84,0.00,,,0.00,,2013-04-10 19:12:00,
2013-04-10 14:22:00,26.0,22.0,30.12,NNE,16,9.0,19.0,84,0.00,,,0.00,,2013-04-10 19:22:00,
2013-04-10 14:33:00,26.0,22.0,30.11,NNE,13,10.0,17.0,84,0.00,,,0.00,,2013-04-10 19:33:00,
2013-04-10 14:42:00,26.0,22.0,30.11,NNE,13,10.0,17.0,84,0.00,,,0.00,,2013-04-10 19:42:00,
2013-04-10 14:53:00,26.0,22.0,30.12,NNE,33,9.0,16.0,85,0.00,,,0.00,,2013-04-10 19:53:00,
2013-04-10 15:02:00,26.0,22.0,30.13,North,5,10.0,18.0,85,0.00,,,0.00,,2013-04-10 20:02:00,
2013-04-10 15:12:00,26.0,22.0,30.13,North,5,10.0,18.0,85,0.00,,,0.00,,2013-04-10 20:12:00,
2013-04-10 15:23:00,26.0,22.0,30.12,NNE,16,10.0,16.0,84,0.00,,,0.00,,2013-04-10 20:23:00,
2013-04-10 15:33:00,26.0,22.0,30.12,NNE,33,9.0,20.0,83,0.00,,,0.00,,2013-04-10 20:33:00,
2013-04-10 15:42:00,26.0,22.0,30.12,NNE,33,9.0,20.0,83,0.00,,,0.00,,2013-04-10 20:42:00,
2013-04-10 15:52:00,26.0,22.0,30.11,NE,34,11.0,19.0,84,0.00,,,0.00,,2013-04-10 20:52:00,
2013-04-10 16:02:00,26.0,22.0,30.09,NNE,19,10.0,19.0,84,0.00,,,0.00,,2013-04-10 21:02:00,
2013-04-10 16:12:00,26.0,22.0,30.09,NNE,19,10.0,19.0,84,0.00,,,0.00,,2013-04-10 21:12:00,
2013-04-10 16:22:00,26.0,22.0,30.08,North,5,11.0,19.0,84,0.00,,,0.00,,2013-04-10 21:22:00,
2013-04-10 16:33:00,26.0,22.0,30.08,North,5,8.0,16.0,85,0.00,,,0.00,,2013-04-10 21:33:00,
2013-04-10 16:43:00,26.0,22.0,30.08,North,5,8.0,16.0,85,0.00,,,0.00,,2013-04-10 21:43:00,
2013-04-10 16:53:00,27.0,23.0,30.08,North,355,8.0,18.0,85,0.00,,,0.00,,2013-04-10 21:53:00,
2013-04-10 17:03:00,27.0,23.0,30.07,North,11,6.0,17.0,86,0.00,,,0.00,,2013-04-10 22:03:00,
2013-04-10 17:12:00,27.0,23.0,30.07,North,11,6.0,17.0,86,0.00,,,0.00,,2013-04-10 22:12:00,
2013-04-10 17:23:00,27.0,23.0,30.06,North,355,9.0,15.0,85,0.00,,,0.00,,2013-04-10 22:23:00,
2013-04-10 17:33:00,26.0,22.0,30.06,North,5,9.0,16.0,85,0.00,,,0.00,,2013-04-10 22:33:00,
2013-04-10 17:42:00,26.0,22.0,30.06,North,5,9.0,16.0,85,0.00,,,0.00,,2013-04-10 22:42:00,
2013-04-10 17:53:00,26.0,22.0,30.05,NNE,13,8.0,16.0,85,0.00,,,0.00,,2013-04-10 22:53:00,
2013-04-10 18:02:00,27.0,23.0,30.04,WNW,296,8.0,17.0,85,0.00,,,0.00,,2013-04-10 23:02:00,
2013-04-10 18:12:00,27.0,23.0,30.04,WNW,296,8.0,17.0,85,0.00,,,0.00,,2013-04-10 23:12:00,
2013-04-10 18:22:00,26.0,22.0,30.04,NNW,347,7.0,17.0,85,0.00,,,0.00,,2013-04-10 23:22:00,
2013-04-10 18:33:00,27.0,23.0,30.04,North,5,7.0,17.0,84,0.00,,,0.00,,2013-04-10 23:33:00,
2013-04-10 18:42:00,27.0,23.0,30.04,North,5,7.0,17.0,84,0.00,,,0.00,,2013-04-10 23:42:00,
2013-04-10 18:53:00,27.0,23.0,30.04,North,5,7.0,14.0,84,0.00,,,0.00,,2013-04-10 23:53:00,
2013-04-10 19:02:00,27.0,23.0,30.05,NNW,347,8.0,13.0,85,0.00,,,0.00,,2013-04-11 00:02:00,
2013-04-10 19:12:00,27.0,23.0,30.05,NNW,347,8.0,13.0,85,0.00,,,0.00,,2013-04-11 00:12:00,
2013-04-10 19:22:00,27.0,23.0,30.05,NNE,18,8.0,12.0,85,0.00,,,0.00,,2013-04-11 00:22:00,
2013-04-10 19:32:00,27.0,23.0,30.04,North,9,5.0,10.0,85,0.00,,,0.00,,2013-04-11 00:32:00,
2013-04-10 19:42:00,27.0,23.0,30.04,North,9,5.0,10.0,85,0.00,,,0.00,,2013-04-11 00:42:00,
2013-04-10 19:53:00,27.0,23.0,30.04,North,5,7.0,14.0,85,0.00,,,0.00,,2013-04-11 00:53:00,
2013-04-10 20:02:00,26.0,22.0,30.04,North,5,7.0,13.0,85,0.00,,,0.00,,2013-04-11 01:02:00,
2013-04-10 20:12:00,26.0,22.0,30.04,North,5,7.0,13.0,85,0.00,,,0.00,,2013-04-11 01:12:00,
2013-04-10 20:22:00,26.0,22.0,30.04,NNE,27,8.0,14.0,86,0.00,,,0.00,,2013-04-11 01:22:00,
2013-04-10 20:32:00,26.0,23.0,30.04,North,10,6.0,13.0,87,0.00,,,0.00,,2013-04-11 01:32:00,
2013-04-10 20:42:00,26.0,23.0,30.04,North,10,6.0,13.0,87,0.00,,,0.00,,2013-04-11 01:42:00,
2013-04-10 20:52:00,26.0,23.0,30.03,North,5,6.0,14.0,88,0.00,,,0.00,,2013-04-11 01:52:00,
2013-04-10 21:03:00,26.0,23.0,30.04,North,351,7.0,14.0,88,0.00,,,0.00,,2013-04-11 02:03:00,
2013-04-10 21:12:00,26.0,23.0,30.04,North,351,7.0,14.0,88,0.00,,,0.00,,2013-04-11 02:12:00,
2013-04-10 21:22:00,26.0,22.0,30.04,North,350,8.0,15.0,86,0.00,,,0.00,,2013-04-11 02:22:00,
2013-04-10 21:32:00,26.0,22.0,30.05,North,5,5.0,13.0,86,0.00,,,0.00,,2013-04-11 02:32:00,
2013-04-10 21:42:00,26.0,22.0,30.05,North,5,5.0,13.0,86,0.00,,,0.00,,2013-04-11 02:42:00,
2013-04-10 21:53:00,25.0,22.0,30.05,NNE,14,6.0,13.0,88,0.00,,,0.00,,2013-04-11 02:53:00,
2013-04-10 22:02:00,25.0,22.0,30.05,North,355,7.0,12.0,88,0.00,,,0.00,,2013-04-11 03:02:00,
2013-04-10 22:12:00,25.0,22.0,30.05,North,355,7.0,12.0,88,0.00,,,0.00,,2013-04-11 03:12:00,
2013-04-10 22:22:00,25.0,22.0,30.05,NNE,17,6.0,13.0,88,0.00,,,0.00,,2013-04-11 03:22:00,
2013-04-10 22:33:00,25.0,22.0,30.05,North,355,5.0,10.0,87,0.00,,,0.00,,2013-04-11 03:33:00,
2013-04-10 22:43:00,25.0,22.0,30.05,WNW,296,5.0,11.0,87,0.00,,,0.00,,2013-04-11 03:43:00,
2013-04-10 22:53:00,25.0,22.0,30.05,WNW,296,5.0,11.0,87,0.00,,,0.00,,2013-04-11 03:53:00,
2013-04-10 23:03:00,25.0,22.0,30.04,NNW,336,5.0,13.0,87,0.00,,,0.00,,2013-04-11 04:03:00,
2013-04-10 23:13:00,25.0,22.0,30.04,NW,305,3.0,8.0,89,0.00,,,0.00,,2013-04-11 04:13:00,
2013-04-10 23:22:00,25.0,22.0,30.04,NW,305,3.0,8.0,89,0.00,,,0.00,,2013-04-11 04:22:00,
2013-04-10 23:33:00,24.0,22.0,30.03,WNW,300,7.0,13.0,90,0.00,,,0.00,,2013-04-11 04:33:00,
2013-04-10 23:42:00,24.0,22.0,30.03,WNW,300,7.0,13.0,90,0.00,,,0.00,,2013-04-11 04:42:00,
2013-04-10 23:53:00,24.0,22.0,30.03,NW,317,7.0,14.0,91,0.00,,,0.00,,2013-04-11 04:53:00,